, AK

(GMT )
Anchorage

Weather History for PANC - July, 2013

Change the Weather History Date:

Sunday, July 28, 2013

  Actual Average Record
Temperature  
Mean Temperature 63 °F 59 °F  
Max Temperature 71 °F 66 °F 76 °F (1987)
Min Temperature 54 °F 53 °F 43 °F (1957)
Degree Days  
Heating Degree Days 2    
Month to date heating degree days 108  
Since 1 June heating degree days 292  
Since 1 July heating degree days 108  
Cooling Degree Days 0    
Month to date cooling degree days 14  
Year to date cooling degree days 21  
Since 1 June cooling degree days 21  
Growing Degree Days 14 (Base 50)    
Moisture  
Dew Point 55 °F    
Average Humidity 78    
Maximum Humidity 87    
Minimum Humidity 68    
Precipitation  
Precipitation 0.00 in 0.07 in 0.64 in (2000)
Month to date precipitation 1.10 1.60  
Year to date precipitation 7.94 5.81  
Snow  
Snow 0.00 in 0.00 in 0.00 in ()
Month to date snowfall 0.0 0.0  
Since 1 June snowfall 0.0 0.0  
Since 1 July snowfall 0.0 0.0  
Snow Depth 0.00 in    
Sea Level Pressure  
Sea Level Pressure 30.25 in    
Wind  
Wind Speed 2 mph (West)    
Max Wind Speed 7 mph    
Max Gust Speed -    
Visibility 10 miles    
Events      
T = Trace of Precipitation, MM = Missing Value Source: NWS Daily Summary

Daily Weather History Graph

Daily Weather History Graph

Search for Another Location

Airport or City:

Trip Planner

Search our weather history database for the weather conditions in past years. The results will help you decide how hot, cold, wet, or windy it might be!

Date:

Astronomy

Jul. 28, 2013 Rise Set
Actual Time 5:23 AM AKDT 10:47 PM AKDT
Civil Twilight 4:13 AM AKDT 11:56 PM AKDT
Nautical Twilight 2:38 AM AKDT 1:34 AM AKDT
Astronomical Twilight Sun does not rise Sun does not rise
Moon 11:49 PM AKDT (7/28) 2:37 PM AKDT (7/28)
Length of Visible Light 19h 42m
Length of Day
17h 23m
Waning Gibbous, 59% of the Moon is Illuminated
Jul 28
Waning Gibbous
Jul 29
Last Quarter
Aug 6
New
Aug 14
First Quarter
Aug 20
Full

Hourly Weather History & Observations

Time (AKDT) Temp. Dew Point Humidity Pressure Visibility Wind Dir Wind Speed Gust Speed Precip Events Conditions
12:53 AM 57.9 °F 53.1 °F 84% 30.30 in 10.0 mi Calm Calm - N/A   Scattered Clouds
1:53 AM 57.0 °F 53.1 °F 87% 30.31 in 10.0 mi Calm Calm - N/A   Scattered Clouds
2:53 AM 55.9 °F 52.0 °F 87% 30.31 in 10.0 mi Calm Calm - N/A   Scattered Clouds
3:53 AM 55.9 °F 52.0 °F 87% 30.30 in 10.0 mi Calm Calm - N/A   Scattered Clouds
4:53 AM 57.0 °F 53.1 °F 87% 30.30 in 10.0 mi Calm Calm - N/A   Scattered Clouds
5:00 AM 55.4 °F 53.6 °F 94% 30.29 in 10.0 mi Calm Calm - N/A   Overcast
5:53 AM 59.0 °F 55.0 °F 87% 30.29 in 10.0 mi Calm Calm - N/A   Overcast
6:53 AM 60.1 °F 55.0 °F 83% 30.29 in 10.0 mi SW 4.6 mph - N/A   Mostly Cloudy
7:53 AM 60.1 °F 55.0 °F 83% 30.29 in 10.0 mi WSW 3.5 mph - N/A   Overcast
8:35 AM 60.8 °F 55.4 °F 82% 30.28 in 10.0 mi Calm Calm - N/A   Overcast
8:53 AM 61.0 °F 55.9 °F 83% 30.29 in 10.0 mi Calm Calm - N/A   Overcast
9:53 AM 62.1 °F 55.9 °F 80% 30.28 in 10.0 mi Calm Calm - N/A   Overcast
10:53 AM 62.1 °F 55.9 °F 80% 30.28 in 10.0 mi WNW 3.5 mph - N/A   Overcast
11:53 AM 63.0 °F 57.0 °F 81% 30.27 in 10.0 mi NW 3.5 mph - N/A   Overcast
12:53 PM 68.0 °F 57.0 °F 68% 30.26 in 10.0 mi WNW 3.5 mph - N/A   Mostly Cloudy
1:53 PM 66.9 °F 57.0 °F 70% 30.25 in 10.0 mi NW 6.9 mph - N/A   Scattered Clouds
2:53 PM 69.1 °F 55.9 °F 63% 30.23 in 10.0 mi WNW 5.8 mph - N/A   Scattered Clouds
3:53 PM 71.1 °F 57.0 °F 61% 30.22 in 10.0 mi WNW 4.6 mph - N/A   Scattered Clouds
4:53 PM 73.0 °F 57.0 °F 57% 30.20 in 10.0 mi WNW 4.6 mph - N/A   Scattered Clouds
5:53 PM 72.0 °F 55.9 °F 57% 30.18 in 10.0 mi WNW 6.9 mph - N/A   Scattered Clouds
6:53 PM 72.0 °F 55.9 °F 57% 30.17 in 10.0 mi WNW 6.9 mph - N/A   Scattered Clouds
7:53 PM 72.0 °F 55.9 °F 57% 30.16 in 10.0 mi Calm Calm - N/A   Scattered Clouds
8:53 PM 70.0 °F 57.9 °F 65% 30.16 in 10.0 mi SSW 3.5 mph - N/A   Scattered Clouds
9:53 PM 68.0 °F 54.0 °F 61% 30.16 in 10.0 mi WSW 5.8 mph - N/A   Scattered Clouds
10:53 PM 64.0 °F 55.0 °F 73% 30.17 in 10.0 mi WSW 4.6 mph - N/A   Scattered Clouds
11:53 PM 63.0 °F 55.0 °F 75% 30.18 in 10.0 mi SW 4.6 mph - N/A   Scattered Clouds